Simultaneous Nadir Overpasses (SNOs) Predictions

Prediction of SNOs between LANDSAT-8 and NOAA-19 Satellite Orbit:

Table of predicted SNOs for the next 14.0 days since TLE Epoch: 6/3/2023
Index Date (LANDSAT-8) Time (LANDSAT-8) Lat,Lon (LANDSAT-8) SZA (LANDSAT-8 ) Date (NOAA-19) Time (NOAA-19) Lat,Lon (NOAA-19) SZA (NOAA-19 ) Distance(km) Time Diff (sec)
1 06/04/2023 03:11:19 -80.93, -10.65 119.49 06/04/2023 03:10:54 -80.94, -10.51 119.48 3.01 25
2 06/04/2023 04:00:45 80.94, 157.08 60.52 06/04/2023 04:01:52 80.95, 156.99 60.55 1.77 67
3 06/06/2023 09:34:31 -80.95,-106.18 119.71 06/06/2023 09:34:23 -80.95,-106.10 119.71 1.40 8
4 06/08/2023 15:57:44 -80.94, 157.87 119.96 06/08/2023 15:57:53 -80.94, 157.86 119.95 0.69 9
5 06/10/2023 21:31:28 80.95,-105.47 59.87 06/10/2023 21:30:23 80.94,-105.40 59.85 1.14 65
6 06/10/2023 22:20:55 -80.95, 62.18 120.14 06/10/2023 22:21:21 -80.94, 62.15 120.13 0.67 26
7 06/13/2023 03:54:40 80.95, 158.75 59.71 06/13/2023 03:53:53 80.94, 158.65 59.68 1.91 47
8 06/13/2023 04:44:07 -80.95, -33.58 120.29 06/13/2023 04:44:50 -80.94, -33.63 120.28 0.96 43
9 06/15/2023 10:17:52 80.94, 62.89 59.58 06/15/2023 10:17:22 80.94, 63.01 59.58 2.01 30



Historial Predications of SNOs between LANDSAT-8 and NOAA-19
